Wind_Speed
6 6 8 6 3 4 4 4 5 4 4 6 5 3 4 3 3 5 5 7 6 4 6 6 5 4 6 4 4 4 7 9 10 10 10 9 9 10 10 9 9 8 7 7 8 9 9 9 9 10 10 11 11 12 12 13 13 15 16 17 19 19 19 19 20 19 16 16 16 14 13 12 11 10 10 9 9 8 9 10 12 13 13 13 13 12
5 8 8 4 1 2 2 4 5 4 3 6 6 4 2 2 3 4 4 5 5 5 4 7 7 7 8 6 6 6 7 9 11 12 12 12 11 10 10 9 9 8 7 7 9 10 10 10 11 10 10 12 12 13 13 13 14 15 16 18 19 20 20 19 20 19 16 16 15 13 13 11 10 11 10 8 8 8 9 12 13 13 13 13 13 12
7 10 8 3 1 2 4 4 6 6 5 6 4 4 2 3 4 4 4 4 5 4 2 5 6 6 9 8 9 11 10 9 10 12 12 12 13 12 11 10 9 9 9 9 9 10 11 12 12 11 11 12 12 13 13 14 15 16 17 19 20 20 20 20 19 19 17 16 15 13 11 10 9 10 9 7 8 7 8 10 13 13 13 13 13 12
8 9 8 5 3 5 5 5 7 6 4 5 4 4 1 2 1 2 4 5 4 3 2 1 5 5 7 8 10 13 13 9 9 11 12 12 12 13 12 11 10 10 10 10 10 11 12 13 13 12 11 12 13 13 15 15 15 17 18 19 20 20 20 20 20 19 18 17 17 15 12 11 10 10 9 8 8 8 8 9 11 12 13 13 11 11
7 3 2 5 6 7 7 6 7 6 5 5 3 4 3 1 1 2 5 6 4 4 3 4 4 3 5 8 9 11 13 11 9 10 12 13 14 13 13 13 12 11 11 11 11 11 13 14 14 13 13 13 14 14 15 16 16 17 19 19 19 20 20 20 20 19 18 18 18 15 13 13 12 10 9 8 8 9 9 9 9 10 12 13 11 10
6 4 3 6 8 10 9 7 7 6 5 5 3 3 4 1 3 5 8 6 3 4 3 4 3 2 2 5 6 7 10 12 12 13 13 14 15 15 15 15 14 13 12 12 12 13 14 14 14 15 14 14 14 14 15 16 16 16 18 20 20 19 20 20 20 19 18 17 17 15 13 12 11 10 9 8 8 8 9 8 8 8 10 12 11 10
3 5 5 7 8 10 10 8 7 5 6 3 4 3 1 3 6 8 9 6 3 2 3 4 4 0 1 2 3 6 7 10 12 13 14 14 15 16 17 18 16 15 14 14 13 14 15 15 15 15 16 15 15 15 15 16 16 17 18 20 20 20 20 20 20 20 18 17 17 16 14 12 11 10 9 8 8 7 8 7 8 8 8 10 11 9
4 7 7 8 8 9 9 7 5 6 7 0 5 1 2 4 5 7 7 4 1 2 4 4 3 3 1 3 4 4 6 8 10 12 14 15 16 17 18 20 19 16 15 15 15 16 16 16 16 16 16 16 15 14 15 16 17 18 19 21 21 20 20 20 20 20 19 17 17 17 15 12 11 10 8 8 7 7 8 7 7 7 7 9 10 10
5 8 9 9 9 8 4 1 3 5 5 3 5 1 2 3 4 5 5 2 1 2 2 3 2 4 2 4 4 4 4 5 8 10 12 16 17 17 17 19 20 18 16 16 16 16 17 18 16 16 16 16 15 15 16 16 17 18 19 21 22 22 21 20 20 19 19 18 18 18 16 14 12 10 8 7 7 7 8 8 7 8 7 8 9 10
3 3 4 6 7 4 3 6 3 4 2 5 4 3 3 3 4 4 4 2 2 4 2 1 2 5 2 4 4 2 2 1 3 5 7 11 15 17 16 16 18 18 17 17 17 16 17 18 17 16 16 16 16 15 16 16 17 18 19 21 23 23 22 22 20 20 19 19 19 19 17 15 14 11 9 8 8 8 8 8 8 8 8 8 8 9
4 2 1 4 3 4 7 6 2 1 4 7 6 4 4 4 4 4 3 3 4 5 1 1 2 5 4 2 4 1 1 2 2 2 3 5 9 13 15 15 17 19 19 18 18 17 17 17 18 18 17 16 16 16 16 16 17 18 19 20 22 22 23 23 21 21 20 19 19 19 18 17 15 12 10 9 9 8 8 8 8 8 8 9 9 9
7 7 4 3 3 5 7 6 4 4 7 7 5 4 4 3 3 4 3 3 6 3 3 2 2 5 5 1 3 3 3 2 2 2 2 2 3 7 11 14 16 19 20 19 19 18 18 18 19 19 19 18 18 17 18 18 17 18 18 20 21 21 23 23 22 22 21 20 20 20 19 17 16 14 11 10 10 9 8 8 9 9 9 9 10 10
8 7 5 6 6 7 7 6 5 5 6 6 4 5 5 3 3 5 3 3 5 1 4 3 2 4 6 3 1 2 3 1 2 3 4 2 0 3 6 10 13 16 18 19 20 20 19 19 21 22 22 22 20 19 20 19 18 17 18 19 21 21 21 22 22 22 22 21 20 21 20 18 17 16 13 12 11 10 9 9 9 10 9 10 10 11
7 6 7 7 7 9 9 5 5 5 6 6 5 4 5 3 4 5 3 4 4 2 5 3 2 4 6 2 1 1 2 2 1 1 3 3 2 2 3 6 9 13 16 18 19 20 21 20 21 22 23 24 23 22 21 20 19 18 18 19 20 20 20 20 22 23 23 22 21 21 20 19 18 17 15 13 12 10 10 10 10 10 10 9 10 10
5 5 9 8 6 10 11 6 3 2 6 6 3 4 5 3 3 4 2 3 2 2 4 3 3 4 4 1 2 2 4 3 2 2 2 3 2 1 2 4 6 9 13 16 17 19 21 21 21 20 20 22 24 23 21 19 20 19 18 19 20 20 19 19 21 23 23 22 21 20 20 19 18 17 16 14 13 12 11 10 10 10 10 10 9 10
6 1 7 5 3 8 11 5 3 4 4 4 3 5 5 2 2 3 3 5 6 2 3 4 4 3 1 3 3 2 4 4 3 2 2 3 3 3 1 2 3 5 8 12 15 16 19 21 21 19 19 19 20 21 20 19 20 21 21 20 19 19 19 19 19 22 23 22 21 20 21 20 18 18 17 16 15 14 12 11 11 11 11 10 10 10
6 2 8 5 4 5 6 4 5 6 2 4 5 5 0 3 4 4 2 2 5 5 1 1 5 3 2 4 4 3 4 4 4 3 3 4 3 3 3 2 0 2 4 8 12 14 16 18 20 19 19 18 18 18 19 19 20 22 22 22 20 19 19 19 19 20 22 22 21 21 21 20 19 19 18 16 16 14 13 12 12 12 11 11 11 10
4 2 8 7 6 5 3 4 6 4 3 2 3 4 4 1 4 4 2 2 4 5 1 1 4 3 1 1 3 4 5 4 4 2 4 2 1 3 4 4 3 1 1 4 8 11 13 15 18 19 19 18 18 18 19 20 21 21 21 21 21 20 20 20 19 20 21 21 21 21 21 20 20 19 18 17 16 14 14 14 13 12 12 11 11 11
3 2 7 6 5 7 5 6 6 5 5 4 1 3 3 2 2 2 3 3 3 3 1 0 3 3 2 1 1 3 4 3 3 2 2 2 2 3 3 5 4 3 1 1 3 7 10 13 15 17 18 18 19 21 22 21 20 20 19 19 20 20 20 20 19 20 20 21 21 20 20 20 20 19 18 18 16 15 15 15 14 13 13 12 11 12
3 4 3 6 6 6 7 7 6 7 6 3 2 4 3 2 1 1 2 3 4 4 2 1 2 0 2 4 4 2 1 2 3 2 1 2 3 2 3 5 5 5 4 3 1 3 6 9 12 14 17 19 21 23 24 21 19 20 19 19 20 20 20 20 19 19 20 20 20 20 19 20 20 20 19 18 18 17 16 15 15 14 13 13 12 12
3 3 1 6 7 5 7 6 4 4 6 6 6 5 4 1 2 3 3 3 4 5 3 3 4 2 5 4 3 2 1 2 2 2 2 2 3 4 5 5 5 6 5 4 2 1 2 5 9 12 15 18 20 21 21 19 19 19 18 19 20 21 20 20 20 19 20 20 20 20 20 20 20 20 19 19 18 18 17 16 16 15 14 14 13 13
4 4 3 5 6 6 4 2 4 4 2 4 5 5 4 3 3 4 3 3 3 5 4 4 6 3 6 2 1 2 2 3 3 2 2 3 3 4 5 5 6 6 5 5 3 1 1 3 6 9 13 15 16 17 18 18 18 18 19 20 19 19 20 20 20 20 21 20 20 20 21 20 20 19 19 19 19 19 18 17 16 16 16 15 14 14
2 3 5 3 2 1 5 5 2 3 3 5 5 4 3 4 5 5 4 2 2 3 2 3 6 2 6 3 1 2 2 3 3 2 2 3 4 4 4 5 5 5 5 5 4 3 1 2 4 7 10 12 14 15 16 17 18 17 18 19 19 19 20 20 20 21 22 22 21 20 20 20 20 20 20 20 20 20 19 18 17 17 17 16 15 14
2 3 5 3 1 2 4 5 3 2 4 6 6 4 5 5 5 5 4 2 3 3 2 4 5 1 5 4 3 4 3 3 3 2 1 2 4 4 3 4 4 5 5 4 5 4 3 1 3 5 8 10 12 14 15 16 17 17 18 18 19 20 21 20 19 21 23 23 21 20 20 20 20 20 21 20 20 20 20 19 18 17 17 16 16 15
6 3 4 5 4 5 5 5 5 5 6 7 4 4 5 6 4 4 2 2 5 5 3 5 5 2 6 4 4 5 5 4 3 3 2 2 2 2 2 2 3 3 4 4 5 5 4 3 2 4 6 8 10 12 14 15 16 17 17 18 19 21 21 21 20 21 23 24 22 20 20 20 20 21 21 21 21 21 21 20 19 18 18 17 17 16
7 4 5 6 6 6 5 4 3 4 6 6 4 5 7 8 7 6 4 4 6 4 3 6 5 3 7 6 5 5 5 4 4 4 3 2 2 1 1 1 2 3 3 4 4 5 5 4 3 3 5 6 8 10 12 14 15 16 17 18 21 21 20 20 20 21 23 25 24 21 20 20 20 21 21 22 22 21 20 20 20 19 19 18 17 17
4 4 7 7 7 5 3 1 0 2 5 6 6 8 9 9 9 7 6 5 4 2 4 6 5 2 3 6 5 5 5 5 4 5 5 4 3 2 2 1 1 2 3 4 4 4 5 4 4 3 3 4 6 8 10 13 15 16 17 19 21 20 19 19 20 21 23 24 24 24 23 21 20 20 21 21 22 22 22 20 20 20 19 18 18 18
3 6 9 10 9 6 3 1 1 4 7 7 7 9 10 10 10 10 8 5 2 3 5 3 3 6 4 4 5 5 5 5 5 5 5 5 3 2 2 1 1 1 2 3 3 4 4 4 3 3 3 3 4 6 8 10 12 14 17 19 21 21 20 18 17 19 21 22 23 25 25 23 21 20 20 21 22 23 23 21 20 20 19 19 19 18
5 7 9 10 10 5 2 2 3 6 7 7 7 8 9 11 11 11 11 6 4 7 7 1 4 8 6 2 3 3 4 5 5 5 5 4 3 2 1 2 1 1 1 1 2 3 3 3 3 3 3 3 3 4 6 8 9 11 13 15 18 21 22 20 19 18 19 19 22 26 27 26 24 23 22 23 23 24 23 22 21 20 20 20 19 19
5 4 5 8 9 6 5 5 5 6 7 6 8 8 8 10 11 11 11 8 6 9 8 3 5 9 5 1 3 4 4 5 6 6 5 5 3 2 2 2 2 1 1 1 1 1 2 3 3 4 4 4 4 3 3 5 8 9 11 12 14 16 19 21 21 21 20 19 20 23 26 27 26 26 25 26 26 25 24 23 22 21 21 21 21 20
4 3 3 6 8 7 7 6 6 7 7 7 9 8 8 10 10 10 9 7 7 8 8 7 8 8 3 5 6 6 6 7 8 8 7 5 4 3 2 2 2 2 2 1 0 2 3 4 5 5 5 5 5 4 3 4 6 7 8 10 11 12 14 17 19 20 21 20 19 20 23 26 26 26 27 27 28 27 26 24 24 23 23 22 22 22
6 4 4 7 8 7 8 9 8 7 7 9 10 10 10 10 10 9 8 7 8 9 9 9 9 6 4 8 8 8 8 8 9 9 8 6 5 4 3 3 2 2 2 1 1 2 4 5 6 6 7 7 6 5 5 5 5 5 7 9 9 10 11 13 15 16 17 18 19 19 22 25 27 26 27 27 28 28 27 26 25 25 25 24 23 22
8 6 5 7 8 6 8 9 8 7 8 9 8 9 12 12 10 9 8 7 8 9 8 8 5 0 6 8 8 8 9 9 8 8 7 6 5 5 4 3 3 2 1 1 2 3 5 6 7 7 7 7 7 6 7 8 7 6 8 10 11 11 11 12 14 16 17 17 18 19 20 23 26 27 26 27 28 28 28 27 27 26 25 24 24 22
9 9 7 6 7 6 6 7 6 8 9 5 1 2 7 9 9 10 9 8 7 7 7 5 0 4 6 6 7 8 9 8 7 7 6 5 5 4 4 4 3 2 1 2 3 4 6 7 7 8 8 7 8 9 9 9 8 8 9 11 11 11 12 13 14 15 16 17 16 18 19 20 23 26 27 27 27 28 28 27 27 27 25 24 24 24
10 10 7 6 7 6 4 6 8 10 6 2 4 3 0 3 6 8 9 8 6 7 8 6 3 4 5 4 5 8 9 7 6 6 6 6 5 4 4 4 2 1 2 3 4 5 7 7 7 8 8 9 9 8 8 8 8 9 11 13 13 12 13 14 15 14 15 16 17 18 19 19 21 25 27 27 27 28 28 28 27 27 26 26 26 25
10 9 6 5 6 5 5 7 10 6 2 5 5 4 3 2 5 6 8 8 8 8 8 7 5 5 6 6 7 8 8 7 5 5 6 6 6 5 4 3 1 1 2 3 5 6 6 7 7 7 9 9 8 7 8 8 8 10 13 14 14 14 14 14 15 15 15 16 18 19 21 21 21 23 26 28 28 28 28 28 28 26 25 25 25 25
10 9 7 7 7 6 7 9 8 4 3 5 4 4 6 6 6 6 6 5 6 8 8 8 6 7 8 8 9 8 8 6 5 6 8 7 6 6 5 2 1 2 3 4 6 6 6 8 8 7 8 8 8 7 7 8 9 10 12 12 13 14 14 14 15 14 14 16 17 18 20 22 23 24 25 27 28 29 28 28 28 27 25 24 24 24
9 8 8 9 7 7 9 9 8 7 8 8 7 7 9 8 6 6 6 4 5 9 10 10 9 10 11 10 10 9 7 5 4 5 9 7 5 5 4 2 1 2 3 4 5 6 7 8 7 7 7 7 8 7 7 7 9 10 10 10 11 12 14 16 15 15 15 15 16 17 18 21 24 26 26 27 27 28 28 28 29 28 26 24 24 24
8 7 8 9 8 8 9 9 8 9 8 7 6 7 9 8 5 4 7 5 6 11 13 11 11 12 12 12 11 9 6 5 4 4 9 6 4 4 4 2 1 2 2 4 6 7 7 7 7 7 7 7 7 7 7 7 8 9 10 10 10 11 13 15 15 14 14 14 15 16 17 19 22 25 27 28 26 26 27 28 28 27 26 25 24 24
8 6 8 11 10 9 9 9 8 7 4 4 7 8 9 8 7 6 7 4 6 13 15 13 13 14 13 13 13 9 5 4 2 6 8 5 4 5 4 2 1 2 3 4 7 7 7 7 7 7 7 7 7 7 7 7 8 9 10 10 10 10 10 12 13 13 14 15 17 17 17 19 21 24 26 28 28 28 27 26 26 27 26 25 23 23
7 7 8 11 11 10 10 10 8 7 3 7 9 10 11 9 7 8 6 2 8 13 14 14 14 15 15 15 12 7 3 2 6 8 7 5 5 5 3 2 1 1 3 5 6 6 7 7 6 7 8 7 7 8 7 8 9 10 10 10 9 10 10 10 12 13 15 17 18 20 20 20 21 23 25 27 28 29 27 25 25 26 25 24 23 23
6 7 7 9 10 10 9 9 9 7 3 9 10 9 11 8 7 7 2 5 10 13 13 14 14 14 15 15 10 6 4 7 7 7 6 5 4 4 3 1 0 2 4 5 6 6 7 7 7 8 8 7 7 8 9 10 10 10 10 9 9 10 11 12 14 15 15 16 18 20 21 22 21 21 23 25 27 28 27 27 27 26 25 25 25 23
3 5 8 9 8 9 9 9 10 7 5 15 14 8 7 7 3 3 7 7 8 12 13 12 12 13 14 13 9 6 6 7 6 6 6 5 4 4 3 1 1 3 4 5 6 7 7 7 7 8 8 7 8 8 10 11 12 11 10 10 10 11 11 12 15 16 15 14 16 18 19 21 21 20 21 23 25 26 28 29 29 28 27 26 25 24
2 3 6 4 3 6 7 6 5 3 4 18 15 4 8 9 1 3 8 7 8 12 12 10 11 13 12 10 9 8 7 7 6 5 5 4 4 3 2 1 2 4 4 5 6 7 6 7 7 8 7 7 8 9 10 12 11 11 11 11 11 11 10 10 11 13 12 11 12 13 14 16 17 18 21 23 23 25 28 28 28 28 28 27 26 26
3 2 1 1 1 3 5 3 1 4 2 14 11 2 3 10 2 1 6 8 9 12 11 9 11 12 10 9 9 8 7 6 6 5 5 5 4 3 2 2 3 4 4 5 5 5 5 6 7 7 7 8 8 9 10 11 11 11 11 12 12 12 11 10 9 9 9 9 9 9 10 10 11 14 19 22 23 24 27 26 26 28 29 28 28 28
4 5 4 1 2 4 5 4 3 4 2 9 10 1 1 6 4 1 4 8 10 11 10 10 11 12 11 10 9 8 7 7 6 6 5 5 4 3 2 3 3 3 3 4 5 5 5 6 7 7 7 7 9 9 9 9 10 10 11 11 11 11 10 9 8 7 7 7 8 8 8 8 10 14 17 19 20 22 24 25 27 29 29 28 29 30
3 4 5 3 2 3 2 1 3 4 5 4 8 6 3 5 6 4 3 7 11 12 10 10 11 12 11 10 8 7 7 7 6 6 6 5 5 4 4 4 4 4 3 3 4 4 4 5 5 6 6 7 8 9 8 8 9 9 10 11 11 10 9 7 5 4 4 5 8 10 9 9 11 13 16 18 19 20 22 24 26 27 27 28 30 32
4 4 6 7 6 6 4 5 9 10 7 5 7 8 5 5 8 7 6 9 12 12 11 11 12 11 10 9 8 7 7 7 6 6 6 6 5 4 5 5 4 4 3 3 3 3 3 4 4 5 6 6 8 8 7 8 9 10 11 12 13 12 10 9 7 5 4 4 7 9 11 11 12 13 14 17 19 22 24 25 25 25 25 28 31 32
4 4 5 6 6 8 8 6 10 11 9 6 5 6 6 5 7 9 10 11 13 14 13 13 12 10 9 8 8 8 7 7 6 6 6 6 5 5 6 5 4 3 2 2 3 2 2 3 4 5 5 5 7 7 7 8 10 11 11 12 13 13 10 8 6 5 4 3 3 5 8 12 14 15 16 17 20 23 23 23 24 26 27 28 30 32
4 6 6 5 6 7 3 3 6 5 5 4 5 3 6 7 7 10 11 12 13 14 15 14 13 11 10 8 8 7 7 6 6 7 6 5 5 6 6 4 3 2 1 2 1 1 2 3 4 5 4 5 6 6 7 8 10 11 12 13 12 10 9 8 7 7 7 5 4 3 4 8 11 12 13 14 16 18 18 15 15 19 24 26 27 27
5 5 4 3 4 3 2 6 8 6 4 5 9 9 5 7 9 11 12 12 13 14 14 13 12 11 10 9 7 7 6 6 6 7 6 6 6 6 5 4 3 2 1 1 0 1 2 3 5 5 4 4 5 5 6 8 9 10 12 13 12 10 9 9 10 11 11 10 10 10 9 9 11 11 11 10 9 11 12 13 14 13 13 16 17 18
Wind_Direction
221 230 217 228 202 165 199 252 311 350 349 319 312 316 342 31 74 82 104 148 179 205 175 168 166 191 244 225 166 216 217 210 209 203 205 204 197 191 190 187 180 182 173 164 173 175 174 171 169 169 165 168 166 168 172 164 164 168 168 168 168 170 172 168 165 162 162 166 166 165 168 169 167 169 167 164 161 161 164 165 170 180 186 187 192 198
216 238 225 221 95 107 255 284 296 303 304 298 299 305 330 57 81 90 107 144 188 236 179 173 191 197 218 209 178 207 223 215 211 207 207 208 210 207 202 198 190 186 176 175 180 180 179 175 173 172 170 172 171 173 173 167 169 170 171 172 171 173 173 171 171 168 167 172 172 170 171 170 172 175 172 170 168 168 177 177 176 182 190 193 197 202
209 234 224 184 113 243 270 287 277 280 285 284 287 292 312 90 106 118 132 142 184 243 156 171 219 213 204 197 183 201 221 221 213 216 217 213 215 217 215 210 205 198 185 186 191 186 183 180 177 177 176 176 175 176 174 173 174 173 176 177 174 175 174 174 176 173 172 174 173 174 174 170 172 177 175 177 177 174 181 186 185 189 194 197 200 204
205 224 223 195 184 235 251 256 262 267 261 266 279 285 324 107 171 136 147 160 182 249 339 245 244 231 203 195 192 202 212 214 209 217 223 223 224 224 223 221 216 209 198 197 199 192 187 183 182 183 181 179 178 179 177 178 178 177 182 183 179 177 175 178 181 178 177 178 176 177 178 175 174 180 183 186 186 181 179 187 194 199 200 199 198 202
216 182 212 219 208 233 251 240 243 256 234 216 243 289 334 71 296 41 129 160 180 211 260 281 252 213 192 198 202 200 202 205 202 210 217 220 227 231 231 231 227 219 209 206 205 197 191 187 187 188 185 182 182 183 182 181 182 182 185 187 183 181 180 182 185 183 184 183 181 182 184 182 181 184 187 188 189 187 183 186 195 203 207 203 198 201
220 134 136 214 212 225 242 241 234 253 249 194 133 341 330 87 128 125 143 168 208 188 194 269 265 137 150 204 202 183 192 204 203 208 214 214 220 227 231 233 231 226 218 214 211 204 196 192 191 190 189 188 186 187 187 184 184 184 188 190 188 186 186 187 188 188 188 188 187 189 189 188 189 189 189 188 186 187 185 185 192 197 205 203 198 203
202 141 181 217 214 217 232 245 228 233 259 218 92 22 320 149 154 156 161 190 263 98 143 240 268 87 138 166 156 167 196 209 205 210 215 213 213 217 224 229 229 227 222 216 214 209 202 197 196 194 194 193 191 189 188 187 186 185 189 193 191 191 192 192 192 191 191 192 193 192 192 194 195 192 192 191 185 186 185 185 191 191 198 202 196 202
175 169 193 213 216 216 224 233 199 210 254 309 77 45 155 156 174 172 179 209 292 82 147 200 248 281 232 122 127 178 207 210 210 214 215 213 212 214 218 221 223 224 220 216 213 210 206 202 200 198 197 197 194 191 188 189 189 187 191 196 196 195 195 196 198 196 194 196 196 193 193 197 199 195 197 198 193 193 192 190 191 188 200 208 199 202
170 190 188 199 210 211 210 51 106 207 249 60 75 103 141 167 185 183 204 221 189 213 190 169 226 268 235 133 144 190 208 207 211 215 217 215 213 215 216 214 216 220 220 217 215 211 207 206 204 201 199 199 197 193 191 191 190 190 193 197 199 199 198 199 201 200 198 198 197 194 194 198 199 197 197 201 204 207 205 201 199 194 198 211 211 211
136 188 182 210 221 191 82 51 60 241 249 99 124 148 135 163 178 199 226 203 207 248 262 112 264 284 261 144 148 193 199 152 176 189 205 215 216 218 219 212 209 213 217 217 216 214 209 207 205 201 199 200 199 196 194 193 191 191 195 199 201 201 202 203 203 203 201 200 199 197 198 201 200 199 199 201 206 210 210 209 210 208 203 205 216 220
127 146 218 252 269 68 77 79 93 215 120 137 169 173 159 172 178 204 229 224 240 248 204 110 282 292 282 139 112 104 92 62 48 105 135 188 212 219 221 215 208 209 214 215 215 215 213 208 203 203 203 201 200 199 196 194 192 192 195 202 205 203 203 205 204 204 204 202 202 202 202 202 201 202 205 207 207 209 212 212 212 216 213 208 211 216
182 192 196 181 139 115 119 117 113 133 151 175 203 195 193 191 188 210 216 237 256 245 111 114 227 263 269 290 77 100 114 70 2 354 40 123 193 213 219 219 214 211 212 213 216 214 212 209 201 203 210 208 203 200 198 197 194 193 195 202 208 206 205 207 207 206 206 206 205 206 206 205 203 204 207 211 212 214 218 219 215 216 217 215 213 213
188 188 152 134 154 177 171 140 135 161 185 213 218 205 214 201 200 228 219 236 258 203 112 128 190 250 263 278 29 149 152 97 15 341 345 3 286 209 214 220 218 214 213 213 215 213 211 209 203 201 204 207 206 202 201 199 195 195 196 202 210 211 209 210 209 208 209 209 209 209 209 208 208 208 211 215 216 220 223 222 220 219 219 219 217 215
173 161 160 163 169 199 213 195 174 182 195 213 214 219 234 220 225 235 209 226 246 135 115 133 180 254 259 261 39 146 142 100 63 358 348 5 0 244 218 222 218 215 216 216 215 213 211 210 209 204 199 200 204 204 203 201 197 197 198 203 211 214 213 213 212 211 211 211 212 212 211 211 213 213 215 219 219 222 226 224 222 222 222 222 220 218
201 170 172 178 154 182 211 243 268 206 190 207 232 255 264 276 269 269 260 269 292 109 131 158 201 266 273 124 63 69 114 115 104 75 22 28 46 8 229 226 221 216 217 219 218 216 213 212 212 210 203 200 201 201 201 200 199 199 200 206 212 214 215 215 213 214 213 212 213 213 212 212 215 216 216 219 220 218 223 225 225 225 222 220 219 218
252 179 132 134 107 176 205 229 266 258 203 186 218 244 262 307 300 300 321 325 325 299 177 179 231 287 304 179 176 145 142 133 121 123 85 50 60 65 89 204 218 219 214 217 220 218 215 213 211 211 209 206 203 201 200 199 202 204 204 211 216 214 214 215 215 215 214 213 213 215 216 214 215 217 215 218 220 217 219 224 226 229 228 223 221 222
237 133 119 141 151 181 222 207 207 254 241 159 202 218 155 4 296 278 273 287 287 275 242 199 253 252 165 196 193 197 192 159 158 164 107 59 44 68 67 71 144 222 214 216 219 219 218 213 211 211 210 209 206 203 202 200 205 212 213 216 219 215 212 213 215 217 215 214 214 217 219 217 217 218 216 217 220 218 221 226 226 228 231 230 227 225
250 151 131 163 164 146 222 200 185 239 264 218 206 162 109 53 276 276 270 238 250 263 259 271 286 292 271 234 173 200 226 194 180 166 121 109 47 58 66 65 55 42 217 223 220 220 220 214 211 210 209 210 208 204 205 206 210 220 224 222 219 216 212 210 211 213 213 214 216 218 220 219 218 219 217 218 219 219 221 226 228 227 229 231 229 226
271 237 132 150 150 133 176 202 177 185 235 275 305 137 170 226 217 232 274 277 272 284 286 109 313 306 299 358 125 194 231 209 182 156 134 121 75 42 55 66 51 35 36 259 227 222 221 216 214 211 208 208 205 207 216 219 219 227 232 226 217 214 213 211 209 208 210 213 215 217 219 220 220 219 218 218 219 220 221 223 226 228 228 228 228 229
241 260 140 142 144 141 180 208 198 175 185 233 210 180 218 275 278 252 279 293 294 303 327 334 295 241 74 18 6 358 251 197 170 142 96 62 66 44 35 48 42 34 29 16 333 235 224 219 217 211 207 206 207 217 228 228 221 224 230 228 220 216 213 213 212 211 211 212 214 216 218 220 221 222 221 220 219 220 221 223 225 226 228 227 227 230
194 246 198 135 146 181 198 208 235 197 174 194 207 201 203 213 259 258 247 269 293 304 320 313 300 61 73 28 353 27 121 142 124 114 94 58 57 51 38 32 34 36 27 21 21 311 238 220 218 210 209 214 220 230 236 229 220 221 227 226 222 221 217 214 214 214 214 214 215 216 217 219 222 223 224 223 222 222 221 223 225 225 226 227 227 227
200 222 221 164 173 200 173 93 335 325 261 234 233 222 212 204 232 254 235 209 255 292 312 315 308 27 81 65 17 76 121 131 126 134 113 84 71 59 47 35 33 34 27 23 19 356 242 217 216 211 215 221 224 229 231 224 218 220 224 223 221 222 220 216 215 215 216 217 218 218 218 219 220 223 224 224 224 224 223 224 225 225 225 227 228 229
201 230 230 216 200 155 80 71 354 314 289 268 268 261 246 231 235 256 269 219 209 259 294 295 294 29 94 102 97 99 116 129 135 149 130 103 92 77 55 42 35 29 25 20 11 3 320 225 217 218 224 225 223 225 226 223 219 219 222 221 218 219 220 218 216 216 221 226 227 225 222 221 220 222 225 224 224 225 224 224 225 226 227 227 228 230
173 233 226 233 206 131 105 110 144 198 230 238 236 235 253 259 257 274 302 317 263 245 233 261 271 109 105 118 125 127 139 155 163 167 152 113 99 90 68 46 29 22 20 15 9 4 355 303 242 235 233 229 229 228 227 226 223 222 222 220 220 223 228 230 225 222 228 235 236 231 226 225 223 222 224 224 225 225 225 225 226 227 229 228 228 229
188 218 215 227 218 193 186 175 169 183 214 235 224 196 236 253 247 258 273 277 266 258 251 271 283 90 114 136 145 151 167 184 183 169 152 118 102 96 77 49 19 14 15 16 13 8 8 5 305 263 249 241 238 234 231 228 226 225 223 221 223 229 235 239 236 231 234 240 240 234 228 228 226 225 225 224 224 225 225 226 226 228 230 230 229 229
188 211 205 229 234 217 217 211 199 201 205 219 210 189 219 226 211 225 246 240 248 240 218 255 283 73 120 150 164 166 178 200 193 172 171 166 151 144 111 59 21 17 20 24 22 17 15 7 337 295 270 256 248 244 239 233 228 226 224 225 230 236 240 242 240 239 241 243 242 237 230 228 228 228 227 226 226 225 225 227 227 229 231 231 231 230
192 211 208 234 249 248 251 176 77 274 224 215 211 201 212 217 210 222 247 254 255 237 222 236 261 290 153 153 169 181 183 201 198 181 188 193 185 175 147 102 52 37 29 31 31 28 21 2 344 329 304 274 257 252 249 243 236 231 229 230 233 235 237 241 242 242 242 244 244 242 236 231 228 229 229 229 229 227 225 226 228 230 230 231 232 231
205 207 206 227 238 251 285 118 162 249 251 251 235 212 208 207 207 219 238 258 278 257 258 225 205 255 253 148 163 182 181 199 201 187 189 191 182 161 127 116 104 69 41 39 39 33 25 5 345 336 330 309 267 252 249 249 243 237 236 237 238 236 235 236 237 240 242 243 242 241 239 236 232 230 229 229 231 232 229 226 227 230 230 231 232 232
230 211 199 215 223 227 242 219 217 237 251 259 245 224 210 203 209 224 236 242 237 253 276 45 172 236 253 180 155 153 168 191 182 167 168 164 159 153 138 150 153 134 75 58 53 33 12 351 339 337 332 317 286 256 244 243 241 239 239 239 240 241 240 236 232 234 238 239 237 236 237 238 239 237 234 235 238 240 237 231 229 230 230 231 232 232
254 220 189 215 220 207 193 200 217 229 234 237 234 227 214 210 217 228 236 236 231 249 269 270 234 245 250 167 120 115 139 159 149 148 158 159 163 172 177 186 184 185 183 133 49 352 328 320 326 333 328 320 313 295 264 248 241 239 240 239 238 239 239 238 237 237 236 237 237 235 235 238 242 243 243 245 246 245 244 241 238 235 232 232 233 233
235 217 184 218 223 207 191 192 205 220 228 230 226 221 219 224 226 229 239 241 230 243 254 250 251 252 215 125 124 132 141 153 157 161 163 162 171 190 211 219 205 198 198 194 295 305 298 296 302 308 311 313 313 306 291 266 251 244 241 243 244 241 238 237 239 240 239 238 237 235 235 238 242 244 246 248 249 248 247 246 245 243 240 237 235 235
207 200 181 212 231 219 195 198 206 210 229 240 234 223 219 226 232 233 237 237 237 251 250 239 250 252 162 136 142 150 159 171 173 167 164 164 174 197 221 233 229 224 220 228 301 300 286 284 291 296 297 300 303 300 290 274 262 255 249 246 245 244 242 238 235 236 236 237 236 235 238 240 241 244 245 246 248 249 249 248 247 247 246 243 240 238
203 204 197 216 238 229 194 201 211 209 227 240 236 229 225 225 235 241 240 234 236 252 258 249 256 205 130 149 162 163 172 183 179 169 168 168 177 199 222 238 251 252 244 274 301 297 293 291 292 294 295 297 294 286 278 270 261 253 247 241 236 234 236 239 238 235 232 234 235 236 238 240 241 243 244 245 245 246 247 249 247 246 245 245 244 242
205 217 220 220 241 234 183 181 210 222 232 239 201 241 238 232 234 240 246 244 226 230 256 271 226 111 140 175 182 172 172 175 169 164 163 164 176 198 218 232 251 268 276 296 310 301 295 290 286 288 291 285 276 273 277 277 272 267 261 254 250 243 236 235 238 239 237 237 237 235 235 236 239 241 242 243 244 243 244 246 247 246 245 245 245 245
206 218 221 217 240 241 178 179 223 231 229 160 94 87 234 245 241 245 256 259 237 223 235 239 204 159 167 176 165 159 157 154 152 158 169 182 189 192 208 225 242 281 304 311 306 298 293 291 291 290 282 276 277 282 288 285 277 275 274 271 270 265 252 240 236 236 238 239 238 236 235 235 236 236 237 239 240 240 241 242 244 246 246 245 244 243
214 217 219 218 233 235 204 211 231 236 162 124 119 110 121 191 221 234 249 246 230 222 217 211 192 157 154 150 141 142 144 147 162 179 194 211 207 191 195 211 234 289 321 313 297 296 298 296 297 294 287 288 295 298 294 287 282 282 281 280 278 275 268 257 247 242 240 239 239 238 237 237 237 236 235 236 237 237 238 239 242 244 244 242 241 242
224 221 217 220 224 228 231 228 230 245 211 188 188 182 188 203 209 223 247 235 205 200 196 188 169 153 157 156 145 143 145 158 192 202 203 219 217 190 190 194 214 294 316 304 292 298 300 294 295 301 301 302 304 301 296 291 290 289 286 284 282 278 273 268 261 256 251 246 243 242 240 237 238 238 236 235 234 235 236 237 240 241 240 239 237 238
228 225 219 225 219 218 240 240 229 241 241 223 216 205 205 217 220 228 254 247 184 185 188 182 169 163 166 162 154 151 158 189 233 194 178 200 212 188 187 193 206 291 298 294 298 299 294 293 300 308 310 307 305 303 299 297 297 295 291 286 285 283 278 273 269 265 261 255 251 249 246 241 238 238 237 236 234 234 233 234 237 239 239 238 237 237
216 219 217 228 226 214 234 243 233 240 244 220 198 189 194 203 196 210 251 245 179 176 183 180 172 171 171 166 161 161 180 237 275 134 146 176 201 177 173 173 194 284 296 305 311 306 299 303 310 313 314 311 310 309 305 302 300 295 292 289 284 283 281 277 274 269 263 260 256 252 249 246 242 238 237 237 235 233 232 233 234 236 236 236 236 235
203 212 212 226 232 219 223 238 239 244 238 158 156 171 172 167 167 200 247 251 162 169 180 179 174 173 170 164 166 178 215 266 357 100 130 154 162 158 162 158 188 271 303 308 309 310 313 318 316 315 319 317 315 317 312 308 306 301 297 294 284 280 278 276 275 271 267 265 260 254 249 247 245 240 238 237 235 234 232 231 231 232 232 233 232 229
197 211 215 225 233 223 219 234 245 246 194 127 144 160 148 143 180 221 245 191 154 170 179 180 176 170 166 167 177 195 203 108 95 107 127 141 140 149 162 145 150 273 298 305 312 321 322 319 317 318 322 321 320 321 320 317 317 313 307 301 292 284 279 276 273 270 269 268 266 260 254 248 245 242 240 238 236 235 231 228 228 228 227 229 228 224
198 205 214 228 235 229 227 234 241 244 172 129 138 148 148 169 223 234 186 139 164 172 173 178 177 167 166 175 185 187 137 117 120 121 125 134 138 145 159 143 146 274 287 307 321 329 323 320 322 321 321 323 324 327 331 330 326 322 314 306 299 290 284 280 273 268 266 266 267 265 260 253 247 242 240 238 236 235 232 228 226 226 224 225 223 220
202 214 221 225 228 231 234 230 237 251 155 138 139 145 183 214 249 164 149 144 162 170 169 173 173 165 169 177 175 161 144 136 142 138 132 141 145 146 161 179 264 273 291 314 321 322 323 322 322 321 322 327 328 331 336 333 328 325 318 310 302 295 291 284 274 267 263 262 264 265 263 257 249 240 237 237 235 234 233 230 228 226 222 219 218 220
183 230 239 231 209 226 234 219 230 301 142 159 162 171 208 209 55 102 168 156 148 166 168 165 166 164 168 173 165 161 162 155 154 153 147 150 152 154 173 227 264 275 298 317 316 318 323 322 323 326 328 329 331 334 334 329 325 326 324 320 314 307 302 296 280 263 253 257 266 267 263 260 251 237 231 232 232 232 233 231 228 226 223 221 224 230
158 137 239 305 339 257 270 276 314 4 141 184 190 0 214 201 188 40 189 168 153 167 168 161 161 160 162 167 165 168 175 169 165 164 157 155 158 161 185 233 253 274 306 315 312 319 326 322 325 330 331 335 339 338 333 330 332 334 332 328 323 315 310 306 289 261 243 248 263 269 267 260 245 231 227 227 228 230 231 229 225 225 226 229 232 236
109 122 150 196 327 298 291 294 302 351 343 209 212 291 345 197 178 104 188 175 161 161 162 160 160 159 162 168 170 176 182 177 170 170 165 162 164 172 201 242 260 280 306 305 304 320 330 325 326 330 334 344 349 346 341 343 348 348 345 342 336 327 317 309 292 268 246 242 252 259 259 247 232 224 222 224 226 228 229 229 230 232 235 235 234 234
185 185 204 218 275 287 272 355 356 347 345 275 233 233 238 198 177 148 143 161 156 152 151 153 157 163 169 174 177 181 181 179 177 177 175 171 170 188 216 239 262 279 292 297 303 321 330 326 329 333 337 349 357 354 350 353 360 1 360 0 359 354 350 344 331 302 262 253 259 257 247 238 232 225 220 222 226 227 227 228 230 231 232 232 232 230
187 202 233 230 231 239 246 304 322 312 301 282 239 225 222 203 186 166 140 144 149 149 151 153 158 166 174 181 185 181 175 179 183 181 178 174 176 198 220 235 258 276 290 305 312 325 333 331 337 341 344 354 3 1 355 358 8 10 10 13 15 14 11 6 0 351 325 295 283 266 246 235 231 226 222 221 222 222 224 226 228 227 223 221 223 224
134 179 230 235 234 238 243 279 315 309 289 276 250 222 213 201 181 166 153 149 151 155 161 165 167 171 176 182 184 176 172 178 184 182 175 171 181 205 218 230 249 259 276 298 311 328 340 344 347 346 348 356 2 1 1 9 16 17 17 20 20 18 15 12 10 11 6 343 304 267 240 225 218 217 220 221 219 216 216 218 224 227 223 216 212 213
195 225 234 235 236 238 246 0 2 326 284 311 355 319 232 216 193 169 158 154 157 163 169 171 172 174 178 182 179 173 174 183 191 188 177 169 187 206 210 216 222 217 241 280 304 334 349 3 2 349 346 0 4 2 8 21 28 29 30 31 28 25 29 37 47 57 64 71 86 125 182 190 186 187 195 204 208 207 202 196 203 216 217 210 203 200
238 254 252 253 249 239 39 22 3 337 305 332 353 346 298 236 205 181 169 165 166 168 171 173 173 175 182 188 182 171 175 191 198 187 173 174 195 202 198 193 186 177 206 249 346 21 17 24 11 348 341 9 21 19 22 31 37 38 39 41 41 42 51 65 77 86 90 95 103 111 121 132 134 137 146 158 170 178 169 146 129 134 159 173 168 155
Height
1517 1519 1519 1516 1513 1513 1514 1513 1513 1514 1517 1519 1518 1519 1519 1521 1525 1525 1525 1524 1522 1527 1529 1528 1533 1536 1535 1532 1531 1532 1532 1532 1533 1533 1534 1534 1535 1535 1537 1538 1540 1542 1544 1546 1547 1548 1549 1551 1552 1552 1553 1554 1554 1555 1556 1557 1558 1559 1560 1561 1562 1564 1565 1567 1568 1569 1571 1572 1573 1575 1576 1577 1578 1579 1579 1580 1582 1583 1584 1585 1585 1586 1587 1588 1589 1589
1519 1521 1515 1509 1509 1511 1512 1512 1513 1514 1517 1519 1518 1518 1517 1520 1525 1525 1525 1525 1523 1526 1527 1525 1531 1535 1533 1530 1530 1531 1532 1530 1530 1532 1533 1534 1535 1535 1536 1537 1539 1541 1543 1545 1547 1548 1549 1550 1551 1552 1553 1553 1554 1555 1556 1557 1557 1558 1560 1561 1562 1563 1565 1567 1568 1569 1571 1572 1574 1575 1576 1578 1579 1579 1580 1581 1582 1584 1584 1584 1585 1586 1587 1587 1588 1589
1522 1520 1511 1507 1509 1511 1513 1513 1514 1515 1517 1518 1516 1516 1517 1519 1525 1527 1525 1524 1524 1526 1526 1524 1528 1529 1526 1526 1528 1529 1529 1529 1530 1530 1532 1533 1534 1535 1535 1537 1538 1540 1542 1544 1546 1547 1548 1549 1550 1551 1552 1553 1554 1554 1556 1557 1557 1558 1559 1560 1562 1563 1565 1567 1568 1569 1571 1572 1574 1576 1577 1578 1579 1580 1581 1582 1582 1583 1584 1584 1585 1585 1586 1587 1588 1589
1522 1515 1506 1505 1509 1513 1514 1514 1515 1516 1517 1517 1516 1516 1517 1518 1523 1527 1526 1525 1525 1525 1525 1525 1526 1523 1520 1523 1525 1526 1527 1527 1529 1530 1531 1532 1533 1534 1535 1536 1537 1539 1541 1543 1544 1545 1546 1548 1549 1551 1551 1552 1554 1554 1555 1556 1557 1558 1559 1560 1561 1563 1564 1566 1568 1569 1571 1572 1573 1575 1576 1578 1579 1580 1581 1581 1582 1583 1584 1584 1585 1585 1586 1587 1588 1589
1515 1508 1505 1506 1510 1513 1515 1515 1516 1517 1515 1512 1514 1515 1516 1517 1520 1523 1525 1526 1525 1526 1526 1526 1528 1523 1519 1523 1523 1521 1524 1525 1527 1529 1530 1531 1532 1533 1534 1535 1536 1537 1539 1541 1543 1544 1545 1547 1548 1549 1551 1552 1553 1554 1555 1555 1556 1557 1558 1559 1561 1563 1564 1566 1567 1569 1570 1572 1573 1574 1575 1577 1578 1579 1580 1581 1582 1583 1583 1585 1585 1585 1586 1587 1588 1589
1509 1506 1507 1510 1511 1512 1515 1515 1513 1515 1513 1508 1511 1513 1513 1516 1520 1522 1525 1526 1528 1531 1527 1526 1536 1532 1518 1519 1521 1518 1522 1523 1524 1526 1527 1529 1530 1531 1532 1533 1535 1536 1538 1540 1541 1542 1544 1545 1547 1548 1549 1551 1552 1553 1554 1555 1556 1557 1558 1559 1560 1562 1564 1565 1567 1568 1570 1571 1573 1574 1575 1576 1578 1579 1580 1581 1582 1583 1583 1585 1586 1586 1586 1587 1588 1588
1507 1506 1508 1511 1512 1512 1516 1514 1509 1511 1512 1511 1512 1511 1510 1514 1519 1521 1524 1526 1528 1531 1527 1524 1537 1537 1522 1518 1518 1518 1522 1522 1521 1522 1523 1526 1527 1528 1530 1531 1533 1534 1535 1538 1539 1541 1543 1544 1546 1547 1548 1550 1551 1552 1553 1554 1556 1557 1557 1558 1559 1561 1563 1565 1566 1568 1569 1571 1572 1574 1575 1577 1578 1579 1580 1581 1582 1583 1584 1585 1585 1586 1586 1586 1587 1588
1505 1509 1510 1511 1512 1513 1514 1512 1506 1507 1512 1514 1511 1509 1511 1514 1518 1519 1520 1523 1523 1525 1527 1523 1528 1534 1528 1521 1518 1518 1522 1522 1521 1521 1520 1522 1525 1525 1527 1528 1530 1532 1534 1535 1537 1539 1541 1542 1544 1546 1547 1548 1550 1551 1552 1554 1555 1556 1557 1557 1559 1560 1562 1564 1565 1567 1568 1570 1571 1573 1575 1576 1578 1579 1580 1581 1581 1582 1583 1584 1584 1585 1586 1585 1586 1587
1504 1509 1510 1510 1512 1512 1509 1506 1502 1505 1512 1514 1509 1509 1511 1513 1515 1515 1516 1520 1520 1524 1531 1525 1524 1534 1530 1520 1518 1518 1520 1521 1520 1519 1518 1518 1521 1523 1524 1526 1527 1530 1532 1533 1535 1537 1539 1541 1542 1544 1545 1547 1549 1550 1551 1553 1554 1555 1555 1556 1558 1559 1561 1563 1564 1566 1567 1569 1571 1572 1574 1575 1577 1578 1580 1580 1581 1581 1582 1583 1583 1584 1585 1585 1585 1586
1504 1506 1506 1506 1508 1507 1504 1504 1503 1505 1510 1511 1509 1509 1510 1512 1513 1514 1516 1519 1522 1529 1533 1526 1524 1533 1528 1516 1517 1520 1518 1518 1515 1513 1514 1516 1518 1520 1521 1523 1525 1527 1530 1531 1533 1535 1537 1539 1541 1542 1544 1546 1547 1549 1550 1552 1553 1554 1554 1555 1556 1558 1560 1561 1563 1565 1566 1568 1570 1571 1573 1574 1576 1577 1578 1579 1580 1580 1581 1582 1582 1583 1583 1584 1585 1585
1503 1505 1505 1505 1505 1503 1504 1506 1506 1506 1507 1508 1509 1511 1514 1514 1513 1516 1516 1517 1529 1536 1531 1525 1525 1532 1530 1515 1512 1518 1516 1513 1512 1510 1512 1513 1516 1518 1519 1521 1523 1524 1527 1529 1530 1532 1534 1537 1538 1540 1542 1544 1546 1547 1549 1550 1551 1553 1554 1554 1555 1557 1559 1560 1562 1564 1565 1567 1569 1570 1572 1573 1575 1576 1577 1578 1579 1579 1580 1580 1581 1581 1582 1583 1584 1584
1503 1507 1505 1503 1504 1503 1505 1508 1508 1506 1506 1508 1510 1513 1519 1521 1520 1523 1522 1524 1538 1542 1532 1525 1525 1531 1534 1519 1509 1513 1512 1509 1511 1511 1511 1512 1514 1516 1517 1519 1520 1521 1524 1526 1528 1530 1532 1534 1536 1537 1539 1541 1543 1545 1547 1549 1550 1552 1553 1553 1554 1556 1557 1559 1560 1562 1564 1566 1567 1569 1570 1572 1573 1575 1576 1577 1578 1579 1579 1580 1580 1580 1580 1581 1582 1583
1504 1503 1501 1502 1504 1503 1504 1509 1512 1510 1508 1509 1511 1514 1523 1532 1537 1539 1538 1537 1539 1537 1530 1526 1528 1532 1529 1515 1507 1510 1510 1509 1510 1510 1510 1511 1513 1514 1515 1517 1518 1520 1522 1523 1525 1527 1529 1531 1533 1535 1537 1539 1540 1543 1545 1547 1548 1550 1551 1552 1553 1554 1556 1558 1559 1561 1562 1564 1566 1567 1569 1570 1572 1573 1575 1576 1577 1578 1578 1578 1579 1579 1579 1579 1580 1581
1506 1504 1501 1504 1506 1501 1501 1507 1513 1513 1510 1511 1511 1514 1521 1529 1543 1545 1538 1535 1533 1530 1527 1525 1530 1532 1520 1509 1506 1507 1507 1508 1509 1510 1511 1512 1513 1514 1514 1515 1517 1518 1520 1521 1523 1525 1526 1528 1530 1533 1535 1537 1539 1541 1544 1545 1546 1548 1550 1551 1552 1553 1555 1557 1558 1559 1561 1562 1564 1566 1567 1569 1570 1572 1573 1574 1575 1576 1577 1577 1577 1578 1578 1578 1579 1579
1509 1510 1503 1502 1503 1500 1499 1500 1503 1503 1506 1507 1504 1509 1514 1515 1528 1533 1525 1525 1526 1527 1530 1531 1533 1528 1519 1515 1509 1504 1506 1508 1509 1511 1511 1512 1512 1513 1514 1514 1516 1516 1518 1520 1521 1523 1524 1525 1528 1530 1532 1534 1536 1539 1541 1542 1544 1546 1547 1549 1550 1552 1553 1555 1557 1558 1559 1561 1563 1564 1566 1568 1569 1570 1572 1573 1574 1574 1575 1576 1576 1576 1577 1577 1578 1578
1508 1507 1497 1497 1499 1498 1500 1498 1495 1499 1506 1505 1501 1509 1514 1507 1511 1520 1519 1519 1520 1523 1528 1530 1526 1515 1511 1513 1506 1504 1507 1507 1509 1511 1510 1512 1512 1512 1514 1514 1515 1516 1517 1518 1519 1521 1522 1524 1526 1527 1529 1531 1533 1536 1537 1539 1541 1543 1545 1546 1548 1550 1552 1553 1555 1557 1558 1560 1561 1563 1564 1566 1567 1569 1570 1571 1571 1572 1573 1574 1574 1575 1575 1576 1577 1577
1507 1506 1497 1498 1500 1497 1499 1498 1496 1502 1507 1506 1507 1511 1509 1500 1504 1517 1523 1520 1521 1529 1528 1523 1518 1508 1508 1511 1505 1506 1509 1507 1509 1509 1509 1512 1511 1512 1514 1514 1515 1515 1516 1517 1518 1519 1521 1522 1524 1525 1527 1529 1531 1533 1535 1536 1538 1540 1542 1544 1546 1548 1550 1551 1553 1555 1557 1558 1560 1561 1562 1564 1565 1567 1568 1569 1570 1571 1572 1572 1573 1573 1574 1574 1575 1576
1501 1504 1498 1498 1502 1500 1498 1498 1497 1498 1501 1506 1510 1505 1501 1504 1506 1513 1526 1530 1530 1535 1529 1518 1516 1513 1514 1518 1512 1509 1511 1509 1508 1507 1509 1511 1511 1511 1513 1514 1515 1515 1515 1516 1517 1518 1519 1520 1522 1524 1526 1527 1529 1531 1533 1534 1536 1537 1539 1542 1544 1546 1547 1549 1551 1553 1555 1556 1558 1560 1561 1562 1564 1565 1566 1568 1569 1569 1570 1571 1571 1572 1572 1573 1573 1574
1496 1505 1502 1496 1500 1501 1497 1500 1503 1500 1498 1501 1502 1498 1502 1517 1520 1517 1527 1535 1535 1537 1529 1518 1517 1515 1515 1516 1511 1510 1512 1510 1508 1508 1509 1510 1511 1512 1513 1514 1516 1515 1515 1516 1516 1518 1518 1519 1521 1522 1524 1526 1527 1529 1530 1532 1534 1535 1538 1540 1542 1544 1546 1548 1549 1551 1552 1554 1556 1558 1559 1560 1562 1563 1564 1566 1567 1568 1568 1569 1569 1570 1571 1571 1572 1572
1495 1506 1507 1497 1496 1500 1499 1501 1506 1505 1501 1499 1499 1498 1501 1510 1517 1518 1520 1523 1527 1533 1531 1524 1521 1516 1512 1508 1508 1510 1509 1508 1509 1510 1510 1510 1512 1513 1514 1515 1516 1516 1516 1516 1516 1517 1518 1519 1520 1521 1523 1524 1525 1527 1528 1531 1532 1533 1536 1538 1540 1542 1544 1546 1548 1549 1551 1552 1553 1555 1557 1558 1559 1560 1562 1563 1564 1565 1566 1567 1568 1569 1570 1570 1571 1571
1495 1503 1508 1502 1498 1502 1503 1500 1500 1501 1502 1503 1504 1505 1506 1507 1510 1514 1515 1514 1519 1527 1531 1532 1526 1515 1508 1506 1506 1509 1507 1506 1509 1510 1511 1512 1513 1514 1515 1516 1516 1516 1517 1516 1517 1517 1517 1519 1519 1520 1522 1522 1524 1526 1527 1529 1531 1532 1534 1537 1538 1539 1541 1544 1546 1547 1549 1550 1551 1553 1554 1556 1557 1558 1560 1561 1562 1563 1564 1565 1566 1567 1568 1568 1569 1570
1496 1500 1503 1503 1502 1503 1501 1495 1494 1495 1496 1498 1500 1501 1504 1507 1510 1520 1525 1517 1514 1520 1524 1530 1530 1516 1506 1505 1505 1505 1505 1506 1508 1510 1511 1512 1514 1516 1516 1516 1517 1517 1517 1517 1517 1517 1517 1518 1519 1520 1521 1522 1523 1524 1525 1527 1530 1531 1533 1535 1536 1537 1538 1541 1543 1545 1546 1547 1549 1550 1551 1553 1554 1556 1557 1558 1560 1561 1562 1563 1564 1565 1566 1567 1568 1568
1490 1495 1500 1501 1499 1498 1497 1494 1495 1496 1494 1495 1497 1495 1496 1500 1505 1518 1527 1519 1514 1518 1517 1523 1529 1517 1505 1504 1504 1504 1505 1507 1509 1510 1511 1512 1515 1516 1516 1516 1517 1517 1517 1517 1516 1516 1517 1517 1518 1519 1519 1521 1522 1523 1524 1526 1528 1530 1531 1533 1534 1534 1536 1539 1541 1542 1543 1544 1546 1548 1549 1551 1552 1553 1554 1556 1557 1559 1560 1561 1562 1563 1564 1565 1566 1566
1491 1496 1501 1503 1498 1495 1495 1494 1494 1495 1496 1498 1497 1495 1497 1499 1498 1505 1511 1510 1513 1516 1516 1524 1529 1518 1507 1504 1504 1506 1507 1508 1510 1511 1511 1513 1515 1516 1517 1516 1516 1516 1517 1517 1516 1516 1516 1517 1518 1518 1518 1519 1520 1521 1523 1524 1526 1527 1528 1530 1531 1532 1534 1536 1538 1540 1541 1542 1543 1545 1547 1548 1549 1551 1552 1553 1555 1556 1558 1559 1560 1561 1561 1563 1564 1565
1494 1497 1501 1507 1510 1509 1506 1504 1502 1500 1499 1499 1496 1496 1498 1497 1499 1503 1504 1509 1516 1513 1513 1523 1523 1512 1507 1506 1505 1507 1508 1508 1510 1511 1512 1514 1514 1516 1516 1516 1516 1516 1516 1516 1517 1516 1516 1517 1517 1518 1518 1518 1519 1520 1521 1522 1524 1525 1526 1527 1528 1530 1531 1533 1536 1538 1538 1539 1541 1543 1544 1546 1547 1548 1549 1550 1552 1553 1555 1557 1558 1559 1560 1560 1562 1563
1491 1496 1498 1506 1516 1520 1519 1515 1508 1501 1497 1496 1496 1500 1500 1498 1502 1507 1507 1514 1520 1513 1511 1518 1516 1507 1506 1507 1506 1507 1508 1509 1509 1511 1513 1514 1514 1515 1515 1516 1516 1516 1516 1516 1516 1516 1516 1517 1517 1517 1517 1517 1518 1518 1519 1520 1522 1523 1524 1525 1526 1527 1529 1531 1533 1535 1536 1537 1538 1540 1541 1543 1545 1546 1547 1548 1549 1551 1553 1554 1555 1557 1557 1558 1559 1560
1488 1493 1494 1498 1504 1505 1507 1504 1498 1494 1495 1497 1498 1500 1501 1499 1500 1504 1508 1512 1513 1512 1513 1512 1508 1508 1507 1506 1508 1507 1507 1509 1509 1510 1512 1513 1514 1515 1515 1516 1516 1515 1516 1516 1515 1516 1516 1516 1517 1517 1517 1517 1517 1517 1518 1518 1519 1521 1522 1522 1524 1525 1527 1528 1530 1531 1532 1534 1535 1537 1538 1540 1542 1543 1545 1546 1546 1548 1549 1551 1553 1554 1555 1556 1557 1558
1490 1494 1492 1494 1495 1493 1493 1494 1492 1493 1495 1496 1497 1499 1500 1499 1500 1504 1508 1507 1505 1513 1516 1507 1505 1511 1507 1502 1505 1506 1505 1507 1507 1508 1511 1512 1513 1514 1514 1515 1515 1515 1516 1515 1515 1516 1515 1516 1516 1516 1516 1516 1516 1516 1516 1517 1517 1518 1519 1520 1521 1523 1525 1526 1527 1528 1529 1530 1532 1533 1534 1537 1539 1540 1542 1543 1544 1545 1546 1548 1550 1551 1553 1554 1555 1556
1488 1492 1488 1490 1493 1491 1491 1493 1492 1493 1495 1493 1494 1496 1497 1499 1501 1503 1504 1502 1503 1511 1512 1505 1507 1511 1505 1500 1502 1502 1503 1505 1506 1508 1510 1511 1513 1514 1514 1515 1515 1515 1515 1515 1515 1515 1515 1516 1516 1515 1516 1515 1515 1515 1515 1515 1516 1516 1517 1518 1519 1520 1522 1524 1525 1526 1527 1527 1528 1530 1531 1533 1535 1537 1539 1540 1541 1542 1543 1545 1547 1548 1550 1551 1552 1553
1486 1490 1488 1489 1493 1492 1493 1494 1493 1493 1495 1495 1494 1494 1495 1497 1499 1500 1499 1498 1501 1505 1504 1503 1508 1507 1500 1498 1500 1502 1503 1505 1506 1509 1510 1511 1513 1513 1513 1514 1514 1514 1515 1514 1515 1515 1515 1515 1515 1515 1515 1514 1514 1514 1514 1514 1515 1515 1515 1516 1516 1517 1519 1520 1522 1523 1524 1525 1526 1527 1528 1530 1532 1533 1535 1536 1538 1539 1540 1542 1544 1545 1546 1547 1548 1550
1487 1492 1491 1490 1493 1495 1494 1494 1494 1494 1495 1496 1495 1493 1494 1496 1497 1498 1498 1497 1501 1504 1502 1503 1508 1505 1498 1497 1500 1503 1505 1505 1506 1508 1509 1511 1512 1512 1513 1514 1513 1514 1514 1514 1514 1514 1514 1514 1514 1514 1514 1513 1514 1513 1513 1513 1513 1513 1514 1514 1514 1515 1516 1517 1518 1519 1521 1522 1523 1524 1525 1527 1528 1530 1531 1533 1534 1536 1537 1539 1540 1542 1543 1544 1545 1546
1486 1491 1491 1492 1497 1497 1493 1494 1495 1494 1494 1496 1496 1494 1495 1497 1497 1496 1496 1497 1500 1503 1502 1504 1507 1503 1496 1497 1500 1503 1503 1504 1505 1506 1508 1510 1511 1512 1512 1513 1513 1513 1513 1514 1514 1514 1514 1514 1513 1513 1513 1512 1512 1512 1512 1512 1512 1512 1512 1512 1512 1513 1513 1515 1516 1517 1518 1519 1521 1522 1522 1524 1525 1526 1528 1529 1531 1532 1533 1535 1536 1538 1539 1540 1542 1543
1482 1487 1490 1494 1498 1495 1492 1494 1494 1496 1503 1503 1494 1490 1491 1493 1494 1494 1493 1494 1496 1498 1501 1503 1502 1497 1494 1496 1500 1501 1502 1503 1504 1505 1508 1509 1510 1511 1512 1512 1512 1513 1513 1513 1513 1513 1513 1513 1512 1512 1512 1511 1511 1510 1510 1510 1510 1510 1510 1510 1510 1510 1511 1512 1513 1514 1515 1516 1517 1519 1519 1521 1522 1523 1525 1526 1527 1529 1530 1531 1533 1534 1535 1537 1538 1540
1481 1484 1487 1490 1495 1496 1494 1493 1496 1505 1512 1503 1487 1482 1485 1488 1490 1494 1493 1492 1492 1494 1495 1496 1495 1494 1495 1496 1498 1499 1501 1502 1504 1505 1507 1508 1509 1511 1511 1511 1512 1512 1512 1513 1513 1513 1513 1512 1512 1511 1510 1510 1509 1508 1508 1507 1507 1507 1507 1507 1508 1508 1509 1510 1510 1511 1512 1513 1514 1515 1516 1518 1518 1519 1521 1522 1524 1525 1526 1528 1529 1530 1532 1534 1535 1536
1481 1483 1485 1488 1492 1494 1493 1498 1511 1515 1505 1490 1483 1482 1484 1485 1487 1491 1491 1489 1489 1492 1493 1494 1495 1495 1495 1496 1497 1499 1501 1502 1504 1505 1506 1507 1508 1509 1510 1511 1511 1511 1512 1512 1512 1512 1511 1511 1510 1509 1508 1508 1507 1506 1506 1505 1505 1505 1504 1505 1505 1506 1506 1507 1507 1508 1509 1510 1511 1512 1513 1514 1515 1516 1517 1519 1520 1521 1522 1524 1525 1527 1529 1530 1531 1532
1479 1481 1484 1487 1491 1494 1497 1505 1513 1506 1490 1484 1486 1486 1485 1488 1489 1492 1495 1490 1487 1489 1492 1493 1494 1494 1495 1498 1498 1500 1502 1503 1504 1505 1506 1506 1507 1508 1509 1510 1510 1511 1511 1511 1511 1511 1510 1510 1509 1508 1507 1506 1505 1504 1504 1503 1503 1502 1502 1502 1503 1503 1504 1504 1505 1506 1506 1507 1508 1508 1509 1510 1511 1512 1513 1515 1516 1517 1518 1520 1521 1523 1525 1526 1527 1529
1474 1479 1484 1488 1491 1494 1499 1499 1497 1494 1492 1491 1489 1485 1485 1487 1487 1491 1495 1490 1483 1484 1489 1491 1492 1494 1496 1498 1499 1500 1502 1503 1503 1504 1504 1505 1506 1506 1507 1508 1509 1510 1510 1510 1510 1510 1509 1509 1507 1506 1505 1504 1503 1503 1502 1501 1501 1500 1500 1500 1500 1501 1501 1502 1502 1503 1503 1504 1504 1505 1506 1507 1508 1509 1509 1511 1512 1513 1514 1516 1517 1519 1521 1522 1524 1525
1472 1476 1481 1488 1489 1490 1494 1496 1497 1503 1503 1493 1484 1480 1480 1482 1481 1484 1490 1489 1483 1483 1486 1488 1491 1493 1495 1497 1499 1500 1502 1503 1502 1500 1502 1504 1505 1505 1506 1507 1508 1509 1509 1509 1509 1508 1508 1507 1505 1504 1503 1502 1502 1501 1500 1500 1499 1498 1498 1498 1498 1498 1498 1498 1499 1500 1500 1501 1501 1502 1503 1503 1504 1505 1506 1507 1508 1509 1510 1512 1514 1516 1517 1519 1520 1522
1475 1475 1478 1484 1487 1487 1494 1499 1500 1502 1496 1483 1477 1477 1479 1482 1480 1483 1493 1492 1482 1480 1485 1486 1488 1492 1493 1496 1498 1499 1501 1503 1499 1497 1500 1503 1504 1505 1506 1507 1507 1508 1508 1508 1508 1507 1506 1505 1503 1503 1502 1501 1501 1499 1498 1498 1497 1497 1496 1496 1496 1496 1496 1496 1496 1496 1497 1497 1498 1498 1499 1500 1500 1501 1502 1502 1503 1505 1506 1508 1510 1512 1513 1515 1517 1518
1477 1477 1479 1484 1485 1484 1491 1496 1491 1487 1483 1477 1476 1477 1480 1480 1480 1490 1504 1498 1480 1479 1484 1485 1487 1490 1492 1495 1497 1497 1499 1499 1497 1498 1501 1503 1503 1505 1506 1507 1507 1507 1507 1508 1507 1506 1505 1503 1503 1502 1501 1500 1499 1498 1497 1496 1496 1495 1494 1494 1494 1494 1493 1494 1493 1493 1493 1493 1494 1494 1495 1496 1496 1497 1497 1498 1499 1500 1501 1503 1506 1508 1509 1511 1513 1514
1478 1477 1478 1481 1480 1481 1489 1493 1487 1480 1476 1475 1476 1477 1478 1481 1487 1497 1502 1490 1478 1479 1483 1483 1486 1489 1491 1494 1495 1495 1496 1497 1498 1500 1502 1502 1504 1505 1505 1506 1506 1506 1507 1507 1505 1504 1504 1503 1502 1500 1499 1499 1498 1497 1496 1495 1494 1494 1493 1492 1492 1491 1491 1491 1490 1490 1490 1490 1489 1490 1490 1491 1492 1492 1493 1494 1495 1496 1496 1498 1501 1503 1506 1508 1509 1511
1478 1477 1477 1478 1479 1479 1481 1485 1486 1482 1474 1472 1477 1478 1478 1485 1492 1492 1485 1478 1478 1480 1481 1483 1486 1488 1490 1493 1493 1493 1495 1497 1499 1500 1501 1503 1504 1504 1505 1506 1506 1506 1506 1505 1504 1504 1503 1502 1501 1500 1499 1497 1496 1495 1494 1494 1493 1492 1491 1491 1490 1489 1489 1488 1487 1487 1486 1486 1486 1486 1486 1486 1487 1488 1489 1491 1491 1492 1492 1494 1497 1499 1501 1503 1505 1507
1475 1478 1478 1475 1475 1478 1479 1484 1491 1487 1475 1470 1476 1480 1480 1482 1482 1478 1476 1477 1478 1478 1480 1484 1485 1487 1490 1492 1492 1494 1496 1497 1499 1500 1501 1502 1503 1504 1505 1505 1505 1505 1505 1505 1505 1504 1502 1501 1500 1499 1498 1497 1496 1494 1493 1492 1491 1490 1490 1489 1488 1487 1486 1485 1484 1483 1483 1483 1483 1482 1482 1482 1482 1484 1486 1487 1489 1489 1490 1491 1493 1495 1497 1499 1501 1503
1473 1477 1477 1471 1470 1478 1485 1487 1487 1480 1471 1469 1473 1476 1476 1475 1474 1474 1476 1477 1477 1479 1482 1484 1485 1487 1490 1490 1492 1495 1496 1497 1499 1500 1500 1502 1502 1503 1504 1504 1504 1505 1504 1504 1504 1503 1501 1501 1499 1498 1498 1496 1495 1493 1492 1491 1490 1489 1488 1487 1485 1484 1483 1482 1481 1480 1480 1480 1480 1479 1479 1478 1479 1480 1482 1484 1486 1487 1487 1488 1490 1490 1493 1495 1497 1498
1473 1474 1476 1474 1473 1475 1478 1478 1475 1472 1471 1471 1472 1472 1473 1474 1475 1475 1475 1475 1477 1480 1481 1483 1486 1488 1489 1491 1493 1495 1496 1497 1499 1499 1500 1501 1501 1502 1503 1503 1504 1504 1503 1504 1503 1501 1500 1499 1498 1498 1497 1495 1494 1492 1491 1490 1488 1487 1486 1485 1483 1482 1481 1480 1479 1478 1478 1478 1478 1477 1477 1476 1477 1478 1479 1481 1483 1483 1484 1486 1487 1487 1489 1491 1493 1495
1472 1472 1474 1476 1474 1473 1472 1472 1471 1472 1472 1472 1473 1474 1474 1474 1475 1475 1475 1476 1478 1480 1481 1484 1486 1488 1489 1491 1493 1494 1496 1497 1498 1498 1500 1500 1501 1502 1502 1503 1503 1503 1503 1503 1502 1500 1500 1499 1498 1498 1496 1494 1493 1492 1490 1489 1487 1486 1484 1483 1481 1480 1478 1477 1477 1476 1476 1476 1475 1475 1475 1475 1475 1476 1477 1478 1479 1480 1481 1483 1484 1485 1486 1488 1490 1491
1473 1474 1473 1472 1474 1477 1477 1473 1471 1472 1473 1473 1474 1474 1474 1474 1475 1475 1476 1477 1478 1480 1482 1484 1486 1488 1490 1491 1492 1494 1496 1496 1497 1498 1498 1499 1500 1501 1501 1502 1503 1502 1502 1502 1500 1499 1499 1499 1498 1497 1495 1494 1492 1491 1490 1489 1487 1485 1483 1482 1480 1478 1477 1475 1475 1474 1474 1473 1473 1473 1474 1474 1474 1474 1475 1475 1476 1478 1479 1480 1481 1483 1484 1485 1487 1488
1473 1475 1473 1471 1473 1475 1475 1472 1471 1473 1473 1473 1473 1474 1474 1475 1475 1475 1476 1477 1479 1481 1483 1484 1486 1488 1489 1491 1492 1494 1495 1495 1496 1497 1497 1498 1500 1500 1501 1502 1502 1501 1501 1501 1499 1499 1499 1498 1497 1496 1495 1493 1492 1491 1490 1488 1486 1484 1483 1481 1479 1478 1476 1475 1474 1473 1472 1472 1472 1472 1472 1472 1472 1472 1473 1473 1474 1475 1477 1478 1479 1480 1481 1482 1484 1485
1473 1476 1473 1471 1472 1473 1473 1472 1473 1473 1472 1472 1473 1474 1474 1475 1475 1475 1477 1478 1479 1481 1482 1484 1486 1488 1489 1491 1492 1493 1494 1495 1495 1496 1497 1498 1499 1500 1501 1501 1501 1501 1501 1500 1499 1499 1498 1497 1497 1495 1494 1493 1492 1491 1490 1488 1486 1484 1482 1481 1479 1478 1477 1475 1474 1473 1472 1471 1471 1471 1471 1471 1471 1471 1471 1472 1473 1474 1475 1476 1477 1478 1479 1481 1483 1484
1473 1473 1470 1472 1476 1477 1475 1475 1476 1477 1476 1475 1475 1474 1475 1475 1475 1476 1476 1478 1479 1481 1482 1484 1486 1487 1489 1490 1491 1492 1493 1494 1494 1495 1496 1497 1498 1499 1500 1500 1501 1501 1500 1500 1500 1499 1498 1497 1496 1495 1494 1493 1492 1492 1490 1488 1486 1484 1483 1481 1480 1479 1478 1477 1475 1473 1472 1471 1471 1471 1471 1471 1471 1471 1471 1472 1472 1473 1474 1475 1477 1478 1479 1480 1482 1484
1471 1470 1469 1471 1474 1474 1475 1476 1478 1478 1477 1476 1476 1476 1476 1476 1476 1476 1477 1478 1480 1481 1482 1484 1485 1486 1488 1489 1491 1492 1493 1493 1493 1495 1496 1497 1498 1499 1499 1500 1500 1500 1500 1500 1499 1499 1498 1497 1496 1495 1495 1493 1493 1493 1491 1489 1487 1485 1484 1483 1481 1481 1480 1478 1476 1475 1474 1473 1473 1473 1473 1473 1473 1473 1473 1473 1474 1474 1475 1476 1478 1481 1482 1483 1485 1488